Weather History for KCJR - February, 2013

Change the Weather History Date:

Sunday, February 10, 2013

  Actual Average (KOMH) Record (KOMH)
Temperature  
Mean Temperature 34 °F -  
Max Temperature 48 °F 42 °F 70 °F (1959)
Min Temperature 19 °F 21 °F -5 °F (1979)
Degree Days  
Heating Degree Days 32    
Moisture  
Dew Point 20 °F    
Average Humidity 61    
Maximum Humidity 100    
Minimum Humidity 30    
Precipitation  
Precipitation 0.00 in - - ()
Sea Level Pressure  
Sea Level Pressure 30.38 in    
Wind  
Wind Speed 2 mph (South)    
Max Wind Speed 9 mph    
Max Gust Speed 16 mph    
Visibility 10 miles    
Events Rain    
Averages and records for this station are not official NWS values.
T = Trace of Precipitation, MM = Missing Value Source: NWS Daily Summary

Daily Weather History Graph

Daily Weather History Graph

Search for Another Location

Airport or City:

Trip Planner

Search our weather history database for the weather conditions in past years. The results will help you decide how hot, cold, wet, or windy it might be!

Date:

Astronomy

Feb. 10, 2013 Rise Set
Actual Time 7:07 AM EST 5:44 PM EST
Civil Twilight 6:40 AM EST 6:11 PM EST
Nautical Twilight 6:09 AM EST 6:42 PM EST
Astronomical Twilight 5:38 AM EST 7:13 PM EST
Moon 6:57 AM EST (2/10) 6:31 PM EST (2/10)
Length of Visible Light 11h 31m
Length of Day
10h 36m
New Moon, 0% of the Moon is Illuminated
Feb 10
New Moon
Feb 17
First Quarter
Feb 25
Full
Mar 4
Last Quarter
Mar 11
New

Hourly Weather History & Observations

Time (EST) Temp. Windchill Dew Point Humidity Pressure Visibility Wind Dir Wind Speed Gust Speed Precip Events Conditions
12:15 AM 24.8 °F - 19.4 °F 80% 30.39 in 10.0 mi Calm Calm - N/A   Clear
12:35 AM 24.8 °F - 19.4 °F 80% 30.39 in 10.0 mi Calm Calm - N/A   Clear
12:55 AM 24.8 °F - 19.4 °F 80% 30.39 in 10.0 mi Calm Calm - N/A   Clear
1:15 AM 23.0 °F - 19.4 °F 86% 30.39 in 10.0 mi Calm Calm - N/A   Clear
1:35 AM 21.2 °F - 19.4 °F 93% 30.40 in 10.0 mi Calm Calm - N/A   Clear
1:55 AM 21.2 °F - 19.4 °F 93% 30.40 in 10.0 mi Calm Calm - N/A   Clear
2:15 AM 21.2 °F - 19.4 °F 93% 30.40 in 10.0 mi Calm Calm - N/A   Clear
2:35 AM 21.2 °F - 17.6 °F 86% 30.41 in 10.0 mi Calm Calm - N/A   Clear
2:55 AM 21.2 °F - 19.4 °F 93% 30.42 in 10.0 mi Calm Calm - N/A   Clear
3:15 AM 21.2 °F - 19.4 °F 93% 30.41 in 10.0 mi Calm Calm - N/A   Clear
3:35 AM 21.2 °F - 17.6 °F 86% 30.41 in 10.0 mi Calm Calm - N/A   Clear
3:55 AM 19.4 °F - 17.6 °F 93% 30.41 in 10.0 mi Calm Calm - N/A   Clear
4:15 AM 19.4 °F - 17.6 °F 93% 30.42 in 10.0 mi Calm Calm - N/A   Clear
4:35 AM 19.4 °F - 17.6 °F 93% 30.42 in 10.0 mi Calm Calm - N/A   Clear
4:55 AM 19.4 °F - 17.6 °F 93% 30.42 in 10.0 mi Calm Calm - N/A   Clear
5:15 AM 19.4 °F - 17.6 °F 93% 30.43 in 10.0 mi Calm Calm - N/A   Clear
5:35 AM 19.4 °F - 17.6 °F 93% 30.43 in 10.0 mi Calm Calm - N/A   Clear
5:55 AM 19.4 °F - 17.6 °F 93% 30.44 in 10.0 mi Calm Calm - N/A   Clear
6:15 AM 19.4 °F - 17.6 °F 93% 30.45 in 10.0 mi Calm Calm - N/A   Clear
6:35 AM 19.4 °F - 19.4 °F 100% 30.45 in 10.0 mi Calm Calm - N/A   Clear
6:55 AM 19.4 °F - 19.4 °F 100% 30.45 in 10.0 mi Calm Calm - N/A   Clear
7:15 AM 19.4 °F - 17.6 °F 93% 30.46 in 10.0 mi Calm Calm - N/A   Clear
7:35 AM 19.4 °F - 19.4 °F 100% 30.47 in 10.0 mi Calm Calm - N/A   Clear
7:55 AM 21.2 °F - 19.4 °F 93% 30.48 in 10.0 mi Calm Calm - N/A   Clear
8:15 AM 24.8 °F - 21.2 °F 86% 30.48 in 10.0 mi Calm Calm - N/A   Clear
8:35 AM 26.6 °F - 21.2 °F 80% 30.49 in 10.0 mi Calm Calm - N/A   Clear
8:55 AM 28.4 °F - 23.0 °F 80% 30.48 in 10.0 mi Calm Calm - N/A   Clear
9:15 AM 30.2 °F - 24.8 °F 80% 30.48 in 10.0 mi Calm Calm - N/A   Clear
9:35 AM 32.0 °F 28.7 °F 24.8 °F 75% 30.50 in 10.0 mi SSW 3.5 mph - N/A   Clear
9:55 AM 35.6 °F 32.8 °F 23.0 °F 60% 30.49 in 10.0 mi South 3.5 mph - N/A   Clear
10:15 AM 37.4 °F 34.9 °F 21.2 °F 52% 30.49 in 10.0 mi South 3.5 mph - N/A   Clear
10:35 AM 37.4 °F 32.8 °F 19.4 °F 48% 30.49 in 10.0 mi South 5.8 mph - N/A   Clear
10:55 AM 37.4 °F 32.1 °F 19.4 °F 48% 30.48 in 10.0 mi SSE 6.9 mph - N/A   Clear
11:15 AM 37.4 °F 32.1 °F 19.4 °F 48% 30.47 in 10.0 mi South 6.9 mph - N/A   Clear
11:35 AM 39.2 °F 35.9 °F 21.2 °F 49% 30.45 in 10.0 mi South 4.6 mph - N/A   Clear
11:55 AM 39.2 °F 35.0 °F 17.6 °F 42% 30.46 in 10.0 mi South 5.8 mph - N/A   Clear
12:15 PM 41.0 °F 36.4 °F 17.6 °F 39% 30.44 in 10.0 mi SW 6.9 mph - N/A   Clear
12:35 PM 42.8 °F 38.0 °F 17.6 °F 36% 30.44 in 10.0 mi SW 8.1 mph - N/A   Clear
12:55 PM 44.6 °F 40.7 °F 17.6 °F 34% 30.41 in 10.0 mi SSW 6.9 mph - N/A   Clear
1:15 PM 44.6 °F 40.2 °F 15.8 °F 31% 30.40 in 10.0 mi South 8.1 mph - N/A   Clear
1:35 PM 44.6 °F 40.2 °F 17.6 °F 34% 30.40 in 10.0 mi South 8.1 mph 16.1 mph N/A   Clear
1:55 PM 46.4 °F 41.9 °F 19.4 °F 34% 30.38 in 10.0 mi South 9.2 mph - N/A   Clear
2:15 PM 46.4 °F 42.9 °F 19.4 °F 34% 30.37 in 10.0 mi South 6.9 mph - N/A   Clear
2:35 PM 48.2 °F - 19.4 °F 32% 30.36 in 10.0 mi South 8.1 mph - N/A   Clear
2:55 PM 46.4 °F 41.9 °F 19.4 °F 34% 30.35 in 10.0 mi South 9.2 mph - N/A   Clear
3:15 PM 48.2 °F - 17.6 °F 30% 30.35 in 10.0 mi South 6.9 mph - N/A   Clear
3:35 PM 48.2 °F - 17.6 °F 30% 30.33 in 10.0 mi South 9.2 mph - N/A   Clear
3:55 PM 48.2 °F - 19.4 °F 32% 30.33 in 10.0 mi SSW 8.1 mph - N/A   Clear
4:15 PM 48.2 °F - 17.6 °F 30% 30.33 in 10.0 mi South 6.9 mph - N/A   Clear
4:35 PM 48.2 °F - 19.4 °F 32% 30.33 in 10.0 mi South 6.9 mph - N/A   Clear
4:55 PM 46.4 °F 41.9 °F 19.4 °F 34% 30.32 in 10.0 mi South 9.2 mph - N/A   Clear
5:15 PM 46.4 °F 43.5 °F 19.4 °F 34% 30.32 in 10.0 mi South 5.8 mph - N/A   Clear
5:35 PM 46.4 °F 44.3 °F 19.4 °F 34% 30.32 in 10.0 mi South 4.6 mph - N/A   Clear
5:55 PM 44.6 °F - 21.2 °F 39% 30.32 in 10.0 mi Calm Calm - N/A   Clear
6:15 PM 44.6 °F - 21.2 °F 39% 30.32 in 10.0 mi Calm Calm - N/A   Clear
6:35 PM 42.8 °F - 21.2 °F 42% 30.32 in 10.0 mi Calm Calm - N/A   Clear
6:55 PM 42.8 °F - 21.2 °F 42% 30.32 in 10.0 mi Calm Calm - N/A   Clear
7:15 PM 44.6 °F - 21.2 °F 39% 30.31 in 10.0 mi Calm Calm - N/A   Clear
7:35 PM 44.6 °F - 21.2 °F 39% 30.32 in 10.0 mi Calm Calm - N/A   Clear
7:55 PM 41.0 °F - 23.0 °F 49% 30.32 in 10.0 mi Calm Calm - N/A   Clear
8:15 PM 41.0 °F - 26.6 °F 57% 30.32 in 10.0 mi Calm Calm - N/A   Clear
8:35 PM 42.8 °F - 24.8 °F 49% 30.31 in 10.0 mi Calm Calm - N/A   Clear
8:55 PM 41.0 °F 39.0 °F 24.8 °F 53% 30.30 in 10.0 mi SSE 3.5 mph - N/A   Clear
9:15 PM 42.8 °F 41.1 °F 23.0 °F 46% 30.29 in 10.0 mi SSE 3.5 mph - N/A   Clear
9:35 PM 42.8 °F 40.1 °F 21.2 °F 42% 30.28 in 10.0 mi SSE 4.6 mph - N/A   Clear
9:55 PM 42.8 °F 40.1 °F 23.0 °F 46% 30.27 in 10.0 mi SSE 4.6 mph - N/A   Clear
10:15 PM 42.8 °F 40.1 °F 23.0 °F 46% 30.26 in 10.0 mi SSE 4.6 mph - N/A   Clear
10:35 PM 42.8 °F 40.1 °F 23.0 °F 46% 30.26 in 10.0 mi SSE 4.6 mph - N/A   Clear
10:55 PM 42.8 °F - 24.8 °F 49% 30.26 in 10.0 mi Calm Calm - N/A   Clear
11:15 PM 42.8 °F - 24.8 °F 49% 30.25 in 10.0 mi Calm Calm - N/A   Scattered Clouds
11:35 PM 42.8 °F 41.1 °F 24.8 °F 49% 30.24 in 10.0 mi South 3.5 mph - N/A   Mostly Cloudy
11:55 PM 42.8 °F 40.1 °F 28.4 °F 57% 30.25 in 10.0 mi SSW 4.6 mph - N/A Rain Light Rain